Погода Шамары

Погода Шамары : погода сейчас, прогноз погоды и архив. Всё, что Вы хотите узнать о погоде Шамары!

Поиск расширенной информации на нашем сайте:

Другие новости

Новости СМИ2

Главная страница сайта

Новости сайта

03.07.2017

Напоминаем, что на нашем специализированном сайте Метеоцентр.Азия вы можете получить высокодетализированные автоматические прогнозы погоды по пунктам России, СНГ и мира в авиационном формате (включающие направление и скорость ветра, видимость, явления погоды, количество и форму облачности, нижнюю и верхнюю границу облачности).


Погода Шамары - сегодня

Время (UTC), дата Ветер
(°,м/с) 
Видим.   Явления Облачность Т
(°С)
Тd
(°С)
f(%) Тe
(°С)
Pmin
(гПа)
dP
(гПа)
Po
(мм)
O2
(г/м3)
Тmin Tmax R s Состояние
почвы
00 17.05.18 060 (СВ) 20000 м    4/3 600 м средняя, верхняя 
[Cu Sc|Ac lent|Ci fib]
-1.6 -4.5 81 -1  1019.8  -1.2  741  301           
06 17.05.18 290 (З) 20000 м    8/0 верхняя 
[Cs]
+14.7 -5.9 24 +15  1016.2  -1.4  740  284           
09 17.05.18 290 (З) 4{10}  20000 м    3/3 600 м верхняя 
[Cu hum|Ci sp]
+17.6 -5.8 20 +18  1014.5  -1.4  739  280           
12 17.05.18 300 (СЗ) 20000 м    1/1 600 м 
[Cu hum]
+19 -6.8 17 +19  1013.4  -1  738  279           
18 17.05.18 230 (ЮЗ) 10 км    3/0 средняя 
[Ac lent]
+9.5 -1.8 45 +11  1014.3  0.5  738  288           
21 17.05.18 210 (ЮЗ) 10 км    1/0 средняя 
[Ac lent]
+4.4 -2.1 63 +4  1014.3  -0.6  738  293           
00 18.05.18 220 (ЮЗ) 20000 м    8/0 верхняя 
[Cs]
+2.4 -2 73 +2  1014.1  -0.4  738  295           
06 18.05.18 060 (СВ) 20000 м    8/8 300 м 
[Cu Sc]
+18.6 -1.3 26 +19  1013.6  1.1  739  279           
09 18.05.18 080 (В) 20000 м    9/6 300 м средняя, верхняя 
[Cu hum|Ac lent|Cs]
+18.9 -2 24 +19  1015.1  1.5  740  279           
12 18.05.18 090 (В) 5{11}  20000 м    9/3 600 м средняя, верхняя 
[Cu hum|Ac lent|Cs]
+18 +0.3 30 +18  1016  0.8  740  280           
18 18.05.18 080 (В) 10 км    8/5 600 м средняя, верхняя 
[Cu Sc|Ac As|Ci fib]
+9.4 -0.7 49 +9  1019  1.3  742  289           
21 18.05.18 120 (ЮВ) 10 км    10/6 300 м средняя 
[Cu med, cong|Ac As]
+9.6 -0.9 48 +10  1018  -0.9  741  289           
00 19.05.18 090 (В) 20000 м    10/10 300 м кучево-дожд. 
[Cb calv]
+8.9 -0.7 51 +9  1017.1  -0.9  740  289           
06 19.05.18 170 (Ю) 20000 м    8/1 600 м средняя, верхняя 
[Cu hum|Ac cast|Cs]
+19.9 +4.2 35 +21  1013.1  -1.6  738  277           
09 19.05.18 180 (Ю) 20000 м    9/8 300 м кучево-дожд., средняя 
[Cb calv|Ac As]
+22 +7.3 39 +22  1011.2  -1.6  737  274           
12 19.05.18 190 (Ю) 20000 м  {ливн. осадки}  9/8 300 м кучево-дожд., верхняя 
[Cb calv|Ci sp]
+23.4 +10 43 +25  1010.1  -0.9  736  272           
18 19.05.18 200 (Ю) 10 км    9/8 300 м кучево-дожд., средняя, верхняя 
[Cb calv|Ac lent|Ci fib]
+19.3 +11 59 +23  1009.1  -0.4  735  275           
21 19.05.18 220 (ЮЗ) 10 км  зарница  10/10 300 м кучево-дожд. 
[Cb calv]
+18 +8.1 52 +19  1008.5  -0.7  735  276           
21 20.05.18 300 (СЗ) 10 км    10/10 300 м кучево-дожд. 
[Cb calv]
+9.4 +6.6 83 +9  1014.6  2.5  739  287           
00 21.05.18 310 (СЗ) 20000 м    9/9 300 м кучево-дожд. 
[Cb calv]
+7.2 +4.4 82 +7  1017  740  290           
06 21.05.18 300 (СЗ) 20000 м    10/10 300 м кучево-дожд. 
[Cb calv]
+7.9 +3.5 74 +7  1021.4  1.9  743  291           
09 21.05.18 280 (З) 20000 м    10/10 300 м кучево-дожд. 
[Cb calv]
+8.8 +3.1 67 +8  1022.7  1.3  744  290           
12 21.05.18 350 (С) 20000 м    4/3 600 м верхняя 
[Cu hum|Ci sp]
+12.4 +0.2 43 +12  1022.6  0.2  745  287           
18 21.05.18 230 (ЮЗ) 10 км    1/0 средняя 
[Ac lent]
+6.8 -1.1 57 +8  1024.9  1.6  746  293           
21 21.05.18 тихо ()   10 км    3/0 средняя 
[Ac lent]
+1.7 -0.4 86 +2  1025.8  0.3  746  299           
Время (UTC), дата Ветер
(°,м/с) 
Видим.   Явления Облачность Т
(°С)
Тd
(°С)
f(%) Тe
(°С)
Pmin
(гПа)
dP
(гПа)
Po
(мм)
O2
(г/м3)
Тmin Tmax R s Состояние
почвы

Для получения пояснительной информации подведите курсор к названию столбца.

ПОГОДА Шамары - архив

Всё, что Вы хотите узнать о погоде Шамары - удобно и подробно!

Выберите нужную дату (начиная с 1 января 2015* года) и нажмите кнопку "Найти".
Будут отображены архивные сводки погоды по пункту Шамары, начиная с указанной даты.


Отображать данные в формате CSV (для использования в таблицах Excel)


Внимание! Наш архив погоды предназначен исключительно для личного некоммерческого использования в познавательных целях. Если Вам необходимы официальные справки о состоянии погоды (для производственных, юридических, коммерческих и т.п. целей), обращайтесь в органы Росгидромета.

*Примечание: данная дата относится к архиву по метеостанциям СССР (Россия, СНГ, Балтия).
Архив по метеостанциям Зарубежной Европы и Азии (кроме Китая) хранится 10 дней, по другим регионам земного шара (Китай, Африка, Америка, Австралия, Океания) - 1 день.

Шамары - район местоположения метеостанции


Название, широта, долгота, высота метеостанции:
Шамары 57.3°ш. 58.2°д. 244 м над ур. моря [Российская Федерация]

Дополнительная информация

В oтличие oт бoльшинства пoгoдных сайтoв мы публикуем пoдрoбную метеoинфoрмацию в детальнoм прoфессиoнальнoм фoрмате.

Характеристики температуры и влажнoсти вoздуха измеряются на высoте 2 м в тени вдали oт зданий и деревьев.
Скoрoсть ветра измеряется на высoте 10 м (на урoвне рoста челoвека скoрoсть ветра ниже в 1.5-2 раза). Если метеoстанция нахoдится в гoрoде или в лесу, тo скoрoсть ветра занижена на 2-4 м/с пo сравнению с oткрытым местoм. Скoрoсть ветра над акватoриями крупных рек и oзёр, а также на вершинах хoлмoв на 2-5 м/с выше, чем в oбычных услoвиях.
Атмoсфернoе давление в разных тoчках местнoсти мoжет значительнo oтличаться oт давления на метеoстанции, в зависимoсти oт услoвий рельефа (при пoдъёме на 10 м давление пoнижается примернo на 1 мм рт.ст.).